Goodland, KS

1:02 PM MDT on March 26, 2017 (GMT -0600)
Renner-Goodland Municipal

Weather History for KGLD - October, 2012

Change the Weather History Date:

Sunday, October 7, 2012

  Actual Average Record
Temperature  
Mean Temperature 41 °F 55 °F  
Max Temperature 55 °F 70 °F 95 °F (1934)
Min Temperature 27 °F 41 °F 13 °F (1952)
Degree Days  
Heating Degree Days 24 10  
Month to date heating degree days 127 64  
Since 1 July heating degree days 203 188  
Cooling Degree Days 0 0  
Month to date cooling degree days 2 5  
Year to date cooling degree days 1338 938  
Moisture  
Dew Point 31 °F    
Average Humidity 64    
Maximum Humidity 96    
Minimum Humidity 32    
Precipitation  
Precipitation 0.00 in 0.04 in 0.71 in (1946)
Month to date precipitation 0.24 0.33  
Year to date precipitation 8.85 17.45  
Snow  
Snow 0.00 in 0.00 in - ()
Month to date snowfall 0.5 0.2  
Since 1 July snowfall 0.5 0.6  
Since 1 September snowfall 0.5 0.6  
Snow Depth 0.00 in    
Sea Level Pressure  
Sea Level Pressure 30.21 in    
Wind  
Wind Speed 7 mph (SW)    
Max Wind Speed 17 mph    
Max Gust Speed 35 mph    
Visibility 10 miles    
Events      
T = Trace of Precipitation, MM = Missing Value Source: NWS Daily Summary

Daily Weather History Graph

Daily Weather History Graph

Search for Another Location

Airport or City:

Trip Planner

Search our weather history database for the weather conditions in past years. The results will help you decide how hot, cold, wet, or windy it might be!

Date:

Astronomy

Oct. 07, 2012 Rise Set
Actual Time 6:49 AM MDT 6:19 PM MDT
Civil Twilight 6:22 AM MDT 6:45 PM MDT
Nautical Twilight 5:51 AM MDT 7:16 PM MDT
Astronomical Twilight 5:20 AM MDT 7:48 PM MDT
Moon 11:33 PM MDT (10/7) 1:26 PM MDT (10/7)
Length of Visible Light 12h 23m
Length of Day
11h 29m
Waning Gibbous, 55% of the Moon is Illuminated
Oct 7
Waning Gibbous
Oct 8
Last Quarter
Oct 15
New
Oct 21
First Quarter
Oct 29
Full

Hourly Weather History & Observations

Time (MDT) Temp. Windchill Dew Point Humidity Pressure Visibility Wind Dir Wind Speed Gust Speed Precip Events Conditions
12:18 AM 33.8 °F - 30.2 °F 87% 30.32 in 10.0 mi Calm Calm - N/A   Overcast
12:53 AM 32.0 °F 26.4 °F 30.0 °F 92% 30.37 in 10.0 mi SSW 5.8 mph - N/A   Overcast
1:53 AM 32.0 °F 27.5 °F 30.0 °F 92% 30.37 in 10.0 mi South 4.6 mph - N/A   Overcast
2:53 AM 32.0 °F 25.6 °F 30.0 °F 92% 30.34 in 10.0 mi SSW 6.9 mph - N/A   Overcast
3:53 AM 32.0 °F 25.6 °F 30.0 °F 92% 30.32 in 10.0 mi SSW 6.9 mph - N/A   Overcast
4:49 AM 33.8 °F 27.7 °F 30.2 °F 87% 30.25 in 10.0 mi SSW 6.9 mph - N/A   Overcast
4:53 AM 33.1 °F 26.9 °F 30.0 °F 89% 30.31 in 10.0 mi SSW 6.9 mph - N/A   Overcast
5:44 AM 33.8 °F 27.0 °F 30.2 °F 87% 30.24 in 10.0 mi South 8.1 mph - N/A   Overcast
5:53 AM 33.1 °F 26.1 °F 30.9 °F 92% 30.30 in 10.0 mi SSW 8.1 mph - N/A   Overcast
6:53 AM 34.0 °F 28.8 °F 32.0 °F 92% 30.31 in 10.0 mi SW 5.8 mph - N/A   Overcast
7:53 AM 35.1 °F 29.3 °F 33.1 °F 92% 30.30 in 8.0 mi WSW 6.9 mph - N/A   Overcast
8:06 AM 35.6 °F 30.7 °F 33.8 °F 93% 30.25 in 10.0 mi SW 5.8 mph - N/A   Overcast
8:53 AM 37.0 °F 30.4 °F 34.0 °F 89% 30.30 in 10.0 mi SSW 9.2 mph - N/A   Overcast
9:10 AM 37.4 °F 30.8 °F 33.8 °F 87% 30.24 in 10.0 mi SSW 9.2 mph - N/A   Overcast
9:53 AM 39.0 °F 31.8 °F 35.1 °F 86% 30.28 in 10.0 mi SSW 11.5 mph - N/A   Overcast
10:25 AM 41.0 °F 33.1 °F 37.4 °F 87% 30.23 in 10.0 mi SW 15.0 mph - N/A   Overcast
10:53 AM 42.1 °F 34.9 °F 36.0 °F 79% 30.25 in 10.0 mi SW 13.8 mph - N/A   Mostly Cloudy
11:53 AM 45.0 °F 38.9 °F 37.0 °F 74% 30.23 in 10.0 mi SW 12.7 mph 20.7 mph N/A   Mostly Cloudy
12:23 PM 44.6 °F 38.4 °F 37.4 °F 76% 30.19 in 10.0 mi SSW 12.7 mph - N/A   Mostly Cloudy
12:36 PM 44.6 °F 38.8 °F 35.6 °F 71% 30.18 in 10.0 mi SW 11.5 mph 18.4 mph N/A   Overcast
12:53 PM 44.1 °F 37.7 °F 36.0 °F 73% 30.21 in 10.0 mi SW 12.7 mph - N/A   Overcast
1:05 PM 44.6 °F 39.2 °F 35.6 °F 71% 30.17 in 10.0 mi SSW 10.4 mph 34.5 mph N/A   Overcast
1:15 PM 46.4 °F 41.1 °F 35.6 °F 66% 30.16 in 10.0 mi SW 11.5 mph - N/A   Mostly Cloudy
1:42 PM 50.0 °F - 35.6 °F 58% 30.14 in 10.0 mi SW 11.5 mph 19.6 mph N/A   Mostly Cloudy
1:53 PM 48.0 °F - 35.1 °F 61% 30.15 in 10.0 mi SW 11.5 mph 19.6 mph N/A   Mostly Cloudy
2:10 PM 50.0 °F - 35.6 °F 58% 30.13 in 10.0 mi SW 12.7 mph 19.6 mph N/A   Mostly Cloudy
2:53 PM 50.0 °F - 33.1 °F 52% 30.12 in 10.0 mi Calm Calm - N/A   Mostly Cloudy
3:53 PM 53.1 °F - 32.0 °F 45% 30.09 in 10.0 mi WNW 8.1 mph - N/A   Mostly Cloudy
4:53 PM 55.0 °F - 26.1 °F 33% 30.07 in 10.0 mi NNW 13.8 mph - N/A   Partly Cloudy
5:53 PM 50.0 °F - 24.1 °F 36% 30.09 in 10.0 mi NNW 6.9 mph - N/A   Clear
6:53 PM 41.0 °F - 24.1 °F 51% 30.11 in 10.0 mi Calm Calm - N/A   Clear
7:53 PM 37.9 °F - 23.0 °F 55% 30.12 in 10.0 mi Calm Calm - N/A   Clear
8:53 PM 30.9 °F - 25.0 °F 79% 30.14 in 10.0 mi Calm Calm - N/A   Clear
9:53 PM 30.9 °F 23.5 °F 23.0 °F 72% 30.13 in 10.0 mi SSW 8.1 mph - N/A   Clear
10:53 PM 30.0 °F 25.2 °F 21.9 °F 72% 30.12 in 10.0 mi SSW 4.6 mph - N/A   Clear
11:53 PM 30.0 °F 23.2 °F 21.9 °F 72% 30.09 in 10.0 mi SW 6.9 mph - N/A   Clear